SCP
0 0 0 0 0 0 0 0 0 0 0 0 0 0 0 0 0 0 0 0 0 0 0 0 0 0 0 0 0 0 0 0 0 0 0 0 0 0 0 0 0 0 0
0 0 0 0 0 0 0 0 0 0 0 0 0 0 0 0 0 0 0 0 0 0 0 0 0 0 0 0 0 0 0 0 0 0 0 0 0 0 0 0 0 0 0
0 0 0 0 0 0 0 0 0 0 0 0 0 0 0 0 0 0 0 0 0 0 0 0 0 0 0 0 0 0 0 0 0 0 0 0 0 0 0 0 0 0 0
0 0 0 0 0 0 0 0 0 0 0 0 0 0 0 0 0 0 0 0 0 0 0 0 0 0 0 0 0 0 0 0 0 0 0 0 0 0 0 0 0 0 0
0 0 0 0 0 0 0 0 0 0 0 0 0 0 0 0 0 0 0 0 0 0 0 0 0 0 0 0 0 0 0 0 0 0 0 0 0 0 0 0 0 0 0
0 0 0 0 0 0 0 0 0 0 0 0 0 0 0 0 0 0 0 0 0 0 0 0 0 0 0 0 0 0 0 0 0 0 0 0 0 0 0 0 0 0 0
0 0 0 0 0 0 0 0 0 0 0 0 0 0 0 0 0 0 0 0 0 0 0 0 0 0 0 0 0 0 0 0 0 0 0 0 0 0 0 0 0 0 0
0 0 0 0 0 0 0 0 0 0 0 0 0 0 0 0 0 0 0 0 0 0 0 0 0 0 0 0 0 0 0 0 0 0 0 0 0 0 0 0 0 0 0
0 0 0 0 0 0 0 0 0 0 0 0 0 0 0 0 0 0 0 0 0 0 0 0 0 0 0 0 0 0 0 0 0 0 0 0 0 0 0 0 0 0 0
0 0 0 0 0 0 0 0 0 0 0 0 0 0 0 0 0 0 0 0 0 0 0 0 0 0 0 0 0 0 0 0 0 0 0 0 0 0 0 0 0 0 0
0 0 0 0 0 0 0 0 0 0 0 0 0 0 0 0 0 0 0 0 0 0 0 0 0 0 0 0 0 0 0 0 0 0 0 0 0 0 0 0 0 0 0
0 0 0 0 0 0 0 0 0 0 0 0 0 0 0 0 0 0 0 0 0 0 0 0 0 0 0 0 0 0 0 0 0 0 0 0 0 0 0 0 0 0 0
0 0 0 0 0 0 0 0 0 0 0 0 0 0 0 0 0 0 0 0 0 0 0 0 0 0 0 0 0 0 0 0 0 0 0 0 0 0 0 0 0 0 0
0 0 0 0 0 0 0 0 0 0 0 0 0 0 0 0 0 0 0 0 0 0 0 0 0 0 0 0 0 0 0 0 0 0 0 0 0 0 0 0 0 0 0
0 0 0 0 0 0 0 0 0 0 0 0 0 0 0 0 0 0 0 0 0 0 0 0 0 0 0 0 0 0 0 0 0 0 0 0 0 0 0 0 0 0 0
0 0 0 0 0 0 0 0 0 0 0 0 0 0 0 0 0 0 0 0 0 0 0 0 0 0 0 0 0 0 0 0 0 0 0 0 0 0 0 0 0 0 0
0 0 0 0 0 0 0 0 0 0 0 0 0 0 0 0 0 0 0 0 0 0 0 0 0 0 0 0 0 0 0 0 0 0 0 0 0 0 0 0 0 0 0
0 0 0 0 0 0 0 0 0 0 0 0 0 0 0 0 0 0 0 0 0 0 0 0 0 0 0 0 0 0 0 0 0 0 0 0 0 0 0 0 0 0 0
0 0 0 0 0 0 0 0 0 0 0 0 0 0 0 0 0 0 0 0 0 0 0 0 0 0 0 0 0 0 0 0 0 0 0 0 0 0 0 0 0 0 0
0 0 0 0 0 0 0 0 0 0 0 0 0 0 0 0 0 0 0 0 0 0 0 0 0 0 0 0 0 0 0 0 0 0 0 0 0 0 0 0 0 0 0
0 0 0 0 0 0 0 0 0 0 0 0 0 0 0 0 0 0 0 0 0 0 0 0 0 0 0 0 0 0 0 0 0 0 0 0 0 0 0 0 0 0 0
0 0 0 0 0 0 0 0 0 0 0 0 0 0 0 0 0 0 0 0 0 0 0 0 0 0 0 0 0 0 0 0 0 0 0 0 0 0 0 0 0 0 0
0 0 0 0 0 0 0 0 0 0 0 0 0 0 0 0 0 0 0 0 0 0 0 0 0 0 0 0 0 0 0 0 0 0 0 0 0 0 0 0 0 0 0
0 0 0 0 0 0 0 0 0 0 0 0 0 0 0 0 0 0 0 0 0 0 0 0 0 0 0 0 0 0 0 0 0 0 0 0 0 0 0 0 0 0 0
0 0 0 0 0 0 0 0 0 0 0 0 0 0 0 0 0 0 0 0 0 0 0 0 0 0 0 0 0 0 0 0 0 0 0 0 0 0 0 0 0 0 0
0 0 0 0 0 0 0 0 0 0 0 0 0 0 0 0 0 0 0 0 0 0 0 0 0 0 0 0 0 0 0 0 0 0 0 0 0 0 0 0 0 0 0
Wind_Speed
7 6 7 7 7 6 6 6 6 5 4 3 2 2 2 2 1 1 1 1 1 1 1 0 1 1 1 1 1 1 2 1 1 0 1 1 1 1 1 2 2 2 3
7 8 8 7 8 8 7 6 6 5 4 3 2 2 2 1 1 1 1 1 1 1 1 1 1 1 1 1 1 1 1 1 1 1 1 1 2 1 1 1 2 2 2
9 9 9 8 8 8 8 6 6 6 5 4 3 3 2 2 2 2 1 1 1 1 0 0 0 0 1 1 1 1 0 0 1 2 3 2 1 1 1 1 1 2 2
8 8 9 9 9 9 8 8 7 6 5 5 4 4 3 3 2 2 2 2 1 1 1 1 0 0 0 1 1 1 0 1 0 0 2 2 3 2 1 1 1 2 2
7 8 8 9 9 9 8 7 7 6 6 6 5 5 4 2 2 2 2 2 2 2 1 1 1 1 1 1 1 1 1 1 1 1 1 1 2 3 2 2 1 1 1
6 7 7 7 8 7 7 7 7 7 6 6 6 5 5 4 4 3 3 2 2 2 2 2 2 1 1 1 1 2 1 1 1 1 1 1 2 2 2 2 2 1 1
5 6 7 8 8 8 8 8 8 7 7 7 6 6 5 5 5 4 3 3 2 2 2 2 2 1 1 1 2 2 2 2 2 2 1 1 2 2 3 3 3 2 1
4 5 6 7 7 8 8 8 8 8 8 8 7 6 6 4 3 4 3 3 2 2 2 3 2 2 2 2 2 2 2 2 2 2 2 2 2 2 2 3 3 3 2
3 4 5 6 6 7 8 8 8 8 8 7 7 6 6 5 5 4 4 3 2 2 2 3 3 2 2 2 2 2 2 1 2 2 2 2 1 2 2 3 3 4 4
2 3 4 4 5 6 6 7 7 7 7 7 6 5 6 6 5 5 5 4 4 3 3 3 3 2 2 3 3 2 2 2 2 1 2 2 2 2 2 3 3 3 4
2 3 3 4 4 4 5 6 7 7 7 7 7 7 6 6 6 5 5 4 4 4 4 3 3 3 3 3 3 3 3 3 3 2 3 3 3 2 2 3 3 3 4
1 2 3 3 4 4 4 5 5 6 6 7 7 7 6 6 6 6 5 5 5 4 4 4 3 3 3 3 4 3 4 4 4 3 3 3 2 3 3 3 3 3 4
1 2 3 3 4 4 4 4 4 5 5 5 6 6 6 7 7 6 6 5 5 5 5 5 5 4 4 4 4 4 5 5 4 4 4 4 4 4 3 4 4 3 3
2 2 3 3 3 4 4 4 4 4 4 5 5 6 6 6 6 6 6 6 6 6 5 5 5 5 5 5 5 5 5 5 4 4 4 4 5 4 4 4 4 4 4
2 2 3 3 3 4 4 4 4 4 4 5 5 5 5 5 5 6 6 6 6 6 6 6 6 6 5 5 5 5 5 5 5 5 5 4 4 5 4 4 4 4 4
3 3 3 3 4 4 4 4 4 4 4 5 4 4 4 4 5 5 5 5 6 6 6 6 6 6 5 4 4 6 6 6 6 6 5 5 5 5 5 5 5 5 5
3 3 3 3 3 3 4 4 4 4 4 4 4 4 4 4 5 5 5 5 6 6 6 6 6 7 6 5 6 6 6 6 6 6 5 4 4 5 5 5 6 6 6
3 3 3 3 3 3 3 4 4 4 4 4 4 3 3 4 4 4 5 5 5 5 6 6 6 6 5 5 5 6 8 7 7 6 6 6 5 4 5 5 5 6 5
3 3 3 3 3 3 3 4 4 4 4 4 4 3 3 3 3 4 4 4 4 4 5 5 6 6 5 4 4 6 6 6 7 6 6 6 5 2 4 6 6 6 4
2 2 2 2 3 3 3 5 5 5 4 4 4 3 3 3 3 3 3 3 4 4 4 4 4 5 5 3 3 6 5 6 5 5 5 4 4 2 3 5 5 6 5
2 2 2 2 2 3 4 5 5 5 4 3 3 3 3 3 3 3 3 3 3 3 3 3 4 4 4 3 3 4 4 5 5 4 4 3 2 3 4 6 5 5 5
2 2 2 2 2 3 4 4 4 3 3 3 3 3 3 3 3 3 2 3 3 3 3 3 3 2 2 2 2 3 4 5 5 4 3 2 1 2 3 4 4 4 4
2 2 2 2 2 3 4 4 3 3 3 3 4 3 3 3 3 3 3 2 2 2 2 2 2 2 1 1 1 3 4 4 4 2 1 1 0 2 3 3 3 3 3
2 2 2 2 2 2 3 3 2 3 4 3 3 3 3 3 2 2 2 2 2 2 2 2 2 2 1 1 1 1 2 2 2 2 0 1 1 2 2 1 2 2 2
2 2 2 2 2 2 2 2 2 3 3 3 3 3 3 3 3 2 1 1 1 1 2 2 2 2 2 1 2 2 1 1 1 1 1 1 1 1 1 1 1 1 1
2 2 2 3 2 2 2 2 2 3 3 3 3 2 2 3 3 2 2 2 1 1 1 1 1 1 1 2 1 1 1 2 1 0 0 0 1 1 1 1 1 1 2
Wind_Direction
197 188 185 185 185 183 181 174 177 170 167 165 167 156 146 127 112 114 104 115 122 116 105 127 103 72 68 47 46 67 83 65 7 299 127 145 139 60 59 13 6 37 27
197 187 186 182 188 186 186 181 179 179 174 171 167 159 142 136 114 106 96 93 115 132 150 174 150 135 111 80 53 69 30 70 354 321 282 211 162 122 74 18 359 19 38
204 194 189 187 189 190 188 185 182 176 172 171 161 146 143 158 156 147 127 117 117 115 158 171 182 162 181 112 69 86 56 12 44 354 324 315 346 344 132 44 8 20 15
206 198 192 191 192 192 188 188 184 178 171 173 177 179 185 182 176 164 163 167 158 155 208 213 228 204 169 149 170 108 89 294 359 57 337 338 340 294 275 179 37 24 16
202 199 195 196 194 187 187 189 185 181 178 183 184 198 198 186 169 172 171 172 162 182 198 210 213 227 237 243 234 226 248 271 295 314 303 299 285 290 292 296 314 340 21
191 194 192 191 188 182 183 187 190 183 184 188 190 196 196 187 180 184 177 181 173 187 198 215 213 207 227 250 252 247 241 263 274 280 280 281 286 298 293 285 292 314 0
174 180 184 186 183 184 186 188 189 187 186 192 196 198 200 200 197 191 189 189 187 193 201 208 226 219 231 244 246 247 248 249 257 266 281 287 292 295 289 287 300 307 305
157 171 182 185 183 186 189 191 193 192 190 195 198 199 196 203 203 204 203 200 202 208 206 207 215 218 224 238 232 247 244 247 250 265 269 268 280 287 283 290 294 285 273
154 167 177 183 183 185 188 193 195 196 194 198 199 201 200 200 204 208 208 204 210 214 213 214 215 220 230 238 235 247 247 252 261 268 269 271 270 271 278 277 274 283 282
147 163 168 173 179 186 189 192 197 199 196 198 199 200 204 202 204 205 205 206 211 211 213 217 219 222 224 228 235 249 256 243 239 264 267 268 265 264 265 263 267 273 279
146 153 162 165 168 177 185 191 199 201 199 201 202 200 203 204 203 208 211 213 215 212 213 219 223 223 227 223 220 236 240 244 238 238 253 262 272 262 251 254 257 259 265
134 143 150 158 165 176 180 189 199 201 201 203 203 204 202 202 207 211 215 216 215 218 220 221 227 228 234 232 228 232 237 242 248 248 254 265 265 266 263 257 254 256 259
154 150 151 164 175 181 182 185 194 198 199 199 202 204 205 207 212 215 217 220 219 219 220 223 231 232 236 237 238 237 242 245 251 250 251 257 256 255 257 257 259 260 256
180 176 179 180 182 184 186 188 191 195 192 192 199 206 211 212 214 216 218 222 223 223 225 228 230 231 236 239 240 240 245 248 251 248 250 254 253 256 259 256 259 260 253
216 208 208 200 194 194 194 194 195 195 191 192 201 210 214 213 216 218 221 222 224 227 228 232 234 234 236 239 240 241 244 245 251 251 252 255 266 282 274 266 258 256 253
237 228 224 216 212 204 200 198 201 201 197 197 204 206 212 212 216 218 218 219 223 226 230 234 235 233 234 227 234 250 248 246 249 252 251 248 242 249 254 264 270 266 255
251 242 238 230 224 221 208 203 204 203 205 204 204 204 208 210 215 215 214 220 223 225 230 234 237 237 233 218 221 236 251 251 253 255 253 250 250 242 240 232 236 248 262
261 257 250 243 233 224 220 208 198 201 205 207 205 208 211 212 214 212 216 224 227 227 234 236 239 242 239 226 226 231 244 249 249 250 254 252 248 244 259 254 245 242 237
265 263 255 239 224 218 216 208 201 203 207 210 210 210 214 215 217 218 219 225 230 232 234 236 239 241 237 222 226 233 242 246 245 244 249 256 253 269 269 259 257 259 255
274 267 251 228 214 207 207 207 205 208 212 213 212 210 210 213 218 226 227 225 226 231 235 237 240 242 246 217 221 240 243 245 243 240 241 254 269 261 248 253 259 264 268
285 268 239 222 211 200 205 210 210 215 215 207 204 205 203 212 215 222 226 226 224 224 230 235 241 242 246 213 207 235 251 251 245 239 240 236 222 240 249 265 267 280 285
272 248 225 215 211 207 212 214 215 213 202 197 200 202 203 202 202 206 220 225 220 224 227 233 239 246 234 241 221 226 255 275 249 246 250 245 185 220 243 255 290 295 278
255 245 227 216 220 220 225 222 210 196 197 200 202 205 206 204 208 204 204 218 219 223 230 236 242 247 259 231 215 230 250 271 258 258 313 339 250 232 231 250 279 265 255
237 236 224 216 220 229 234 231 198 195 198 201 205 208 206 199 196 199 201 209 218 224 226 234 247 249 244 260 240 230 233 241 256 266 156 154 168 235 281 264 235 251 269
220 223 225 222 224 224 227 221 199 198 196 195 199 206 206 199 189 172 168 231 208 250 249 238 234 242 253 327 343 304 275 280 302 297 270 261 224 243 256 267 280 281 270
210 210 216 219 221 216 215 209 205 201 198 195 196 201 201 190 183 177 154 91 53 75 354 303 284 300 347 29 30 11 45 64 68 262 223 287 296 300 293 282 280 281 283